Location: Bannatyne
(13.0833°N, 59.5333°W)
Time: 00:54:51
(UTC+00:00)

Transit 4A - Pass Details

Date: 24 January 2021
Orbit: 866 x 978 km, 66.8° (Epoch: 03 March)

Event Time Altitude Azimuth Distance (km) Brightness Sun altitude
Rises 22:42:12 0° 228° (SW) 3,632 12.3 -11.6°
Reaches altitude 10° 22:45:13 10° 241° (WSW) 2,699 11.7 -12.3°
Maximum altitude 22:50:14 25° 294° (WNW) 1,862 10.1 -13.5°
Drops below altitude 10° 22:55:19 10° 348° (NNW) 2,720 10.3 -14.7°
Sets 22:58:23 0° 1° (N) 3,667 10.8 -15.4°
